GFSGL_850_temp_336.txt.gz
Temp
23 23 24 22 23 23 22 22 22 22 22 21 21 20 20 20 20 20 19 19 20 20 19 20 20 19 17 18 18 18 19 18 20 17 16 14 15 15 14 13 13 14 13
26 24 23 25 23 24 23 23 23 22 22 22 21 21 21 21 20 20 20 17 19 19 19 19 19 19 19 18 17 17 18 18 19 17 15 14 15 15 14 14 13 14 14
26 24 23 24 23 23 23 24 23 23 23 22 22 21 21 21 21 21 20 20 20 19 19 18 18 18 19 18 18 17 17 16 16 17 15 15 14 13 15 14 14 14 14
25 25 24 24 24 24 24 23 23 23 23 23 22 22 21 21 21 20 20 20 20 19 20 21 20 19 18 19 19 19 16 16 16 16 16 15 14 14 14 13 13 14 15
24 24 24 23 23 23 23 23 22 22 22 23 22 22 22 21 19 20 19 20 20 20 20 21 20 19 19 18 17 17 16 17 17 17 17 16 15 13 14 14 15 14 13
24 23 22 20 22 22 22 22 22 22 22 22 22 22 22 21 19 20 19 19 20 19 19 18 18 16 18 17 18 17 17 18 16 17 17 16 15 14 15 15 15 14 14
24 23 23 22 21 21 21 21 21 21 20 20 19 21 21 21 21 21 20 19 17 15 17 17 17 17 18 17 17 18 17 17 16 15 16 16 14 15 14 14 14 14 15
23 23 23 23 22 22 22 22 21 21 21 21 20 21 20 20 20 22 20 18 17 19 18 17 19 18 17 17 17 18 18 17 17 16 15 15 14 15 15 15 14 13 13
22 21 21 20 20 20 20 20 19 19 19 21 20 20 20 20 21 21 21 21 19 19 20 17 19 20 18 17 16 17 17 16 15 15 14 14 14 15 15 13 13 13 14
24 24 24 23 23 22 22 20 20 19 19 19 19 20 20 20 20 21 21 19 17 17 19 17 17 17 18 18 16 17 16 15 15 15 15 15 14 14 14 14 14 15 15
24 24 24 23 23 23 22 22 22 21 21 20 19 19 21 21 20 20 19 19 19 17 17 17 17 17 17 17 16 16 15 15 14 14 14 14 14 14 14 14 13 15 15
22 23 23 23 22 22 22 22 22 22 19 18 18 18 19 20 21 20 19 19 18 17 17 17 18 17 17 16 15 15 15 15 14 14 14 14 13 13 13 13 12 13 14
22 22 22 22 21 21 21 21 19 20 20 20 20 20 20 19 19 21 20 19 17 17 17 17 17 17 16 15 15 15 16 15 14 14 15 14 14 14 13 12 12 13 13
22 21 21 21 20 20 19 20 20 21 20 20 20 20 20 20 19 17 20 19 18 17 17 17 17 16 16 16 15 14 15 15 14 14 15 14 14 14 13 13 12 12 12
20 19 19 20 19 19 19 19 19 19 19 19 19 19 19 19 19 18 17 17 17 17 17 16 16 16 16 16 15 14 14 14 13 14 13 13 14 14 13 13 13 13 13
19 20 20 19 19 19 19 19 19 18 18 18 18 18 18 17 18 17 17 17 16 16 16 17 16 16 16 16 15 14 13 13 13 13 13 13 14 14 13 13 13 13 14
19 18 18 18 19 19 18 19 19 19 18 17 17 17 17 18 17 17 17 17 15 15 16 17 17 16 16 16 15 14 14 13 13 13 13 13 13 13 13 12 12 12 13
17 17 17 17 18 17 17 17 17 17 17 18 17 17 17 17 18 17 17 17 17 16 16 16 17 17 16 16 15 15 14 13 13 13 12 12 13 13 13 13 12 12 13
16 16 15 16 16 15 15 16 16 17 17 17 17 17 17 17 17 17 17 17 17 17 16 17 16 15 16 16 15 15 14 12 13 12 13 13 14 13 12 12 12 12 12
15 15 15 15 15 15 15 15 15 15 15 15 16 16 16 16 16 16 15 16 16 16 16 16 16 16 15 14 15 14 14 12 12 12 12 13 13 12 12 13 12 12 11
15 15 14 15 14 14 13 13 13 13 13 12 12 13 12 12 12 13 13 14 14 15 15 16 16 16 15 14 14 14 14 13 12 11 12 12 12 11 13 13 12 11 11
14 14 13 13 13 13 12 12 13 13 11 11 12 11 11 11 11 12 12 12 12 13 13 13 14 15 16 16 15 13 14 14 12 11 11 11 11 12 14 13 11 10 10
13 13 13 13 12 11 12 12 11 11 10 11 12 12 11 10 11 12 11 11 11 12 13 13 13 13 14 15 16 15 14 14 13 12 11 11 10 11 13 12 11 10 10
12 11 11 11 10 10 10 10 10 11 12 12 12 11 11 11 11 12 12 12 11 11 11 12 12 12 13 13 13 14 14 14 13 13 12 11 11 11 10 12 12 10 10
11 12 10 10 10 10 10 10 10 10 10 11 11 10 10 10 11 12 12 12 12 12 12 12 12 12 12 12 12 12 13 14 13 12 12 12 12 11 10 12 10 10 9
11 10 9 9 10 9 9 9 9 9 9 10 10 10 10 10 11 11 12 12 12 12 12 12 12 12 12 12 12 13 12 12 12 12 12 12 12 11 10 11 10 8 9

GFSGL_850_temp_339.txt.gz
Temp
26 25 23 23 23 23 22 23 23 22 21 20 20 20 19 19 19 18 19 19 20 20 19 19 20 19 19 20 19 20 20 21 21 19 18 16 16 15 15 14 14 14 14
25 24 24 23 24 21 22 21 21 22 22 22 22 22 21 19 19 19 19 19 19 20 20 20 20 20 20 19 19 19 20 20 20 19 18 15 16 16 14 15 14 14 15
26 25 24 23 23 23 21 21 21 21 20 20 21 22 21 20 19 19 18 18 18 18 19 20 20 20 19 18 19 19 18 18 18 18 17 16 15 14 14 14 14 15 15
22 22 22 22 22 21 21 21 21 20 20 20 20 20 22 21 19 19 19 19 19 18 18 19 17 18 18 18 17 19 19 18 18 18 18 17 16 14 14 14 14 14 15
22 21 22 23 23 22 21 20 20 21 21 21 21 20 19 19 19 20 20 19 19 19 18 18 17 17 16 17 16 17 17 17 18 18 19 18 17 15 14 15 15 15 15
23 21 21 23 23 23 23 23 23 23 21 21 20 20 19 20 20 20 20 20 18 17 16 15 16 16 16 16 17 17 17 17 18 19 18 19 18 16 15 16 16 16 16
21 21 20 20 20 20 21 21 21 21 21 20 20 20 20 20 20 20 21 18 17 17 18 19 18 18 16 15 16 17 17 18 19 18 18 19 18 16 16 15 16 16 16
21 21 21 21 21 21 20 20 20 20 20 20 20 21 20 21 21 20 20 20 20 20 19 20 19 19 19 17 17 17 17 17 18 18 18 17 17 16 16 16 15 15 15
22 22 22 22 22 21 21 21 20 20 20 20 19 21 20 20 20 20 20 20 20 19 19 20 20 18 18 17 16 17 18 18 17 17 16 16 16 16 16 15 14 14 15
25 25 25 24 24 24 24 23 23 22 21 21 21 20 19 21 19 21 20 20 20 20 20 19 19 18 18 18 17 17 16 17 17 17 16 16 15 15 16 16 14 15 15
23 24 24 24 24 23 23 23 23 22 22 21 20 19 19 19 19 20 19 19 20 19 19 19 18 17 18 17 17 16 17 16 16 16 16 15 15 15 15 15 14 15 16
22 21 21 23 22 21 21 22 21 21 20 20 21 20 21 21 20 20 20 18 19 18 19 19 19 18 17 17 17 16 16 15 15 15 15 15 14 14 14 15 14 14 15
21 21 21 21 21 22 21 21 20 21 21 22 23 22 23 22 22 20 20 19 18 17 18 17 17 17 17 16 16 16 15 15 15 15 15 15 15 15 14 14 14 14 13
21 20 20 20 20 20 20 21 21 22 21 21 22 22 22 22 22 21 20 19 18 17 17 17 17 17 17 16 16 16 15 14 15 15 15 15 16 15 14 14 13 13 13
20 20 20 21 21 21 21 21 21 20 20 19 19 19 20 20 21 20 19 18 17 17 16 17 17 17 16 16 16 16 15 14 14 14 14 15 16 15 14 14 13 13 13
20 21 21 20 21 21 21 21 21 20 19 19 19 18 18 17 18 18 19 18 17 16 15 16 16 16 16 16 16 15 15 15 14 14 14 14 15 14 14 14 14 13 13
18 19 20 19 20 20 20 20 20 20 19 19 19 18 18 18 18 18 17 18 17 17 16 15 15 16 16 17 16 16 16 15 14 13 13 14 14 14 14 14 14 13 13
18 19 19 19 19 19 19 18 19 19 19 19 19 18 18 18 18 17 17 17 17 17 17 17 17 17 17 17 16 16 16 16 15 13 12 12 13 13 13 14 13 13 13
18 18 17 17 18 17 17 18 18 18 17 17 17 17 17 16 16 16 16 16 16 16 15 15 15 15 15 16 17 16 15 16 15 14 13 12 13 12 13 13 13 13 13
18 17 16 16 17 17 17 16 16 16 16 16 16 15 15 13 13 13 14 15 15 15 15 15 15 14 14 14 14 15 15 15 15 13 13 12 12 12 12 13 13 13 12
17 17 16 16 17 16 16 15 15 15 15 15 14 14 13 12 10 11 11 12 14 14 14 14 14 13 14 14 14 14 14 15 14 14 13 12 12 12 12 13 13 13 13
17 16 16 16 15 15 14 14 14 14 14 13 12 12 11 10 9 10 11 11 12 12 12 13 13 13 13 13 15 14 14 14 14 14 14 12 12 11 12 13 13 12 12
16 15 14 14 14 12 14 13 13 12 11 11 11 10 9 10 10 9 10 10 11 11 12 12 12 12 13 13 13 13 14 14 14 14 13 13 12 11 12 12 12 11 11
13 13 13 13 12 13 13 12 11 10 9 9 9 9 9 9 9 9 9 10 10 12 12 12 12 12 12 12 12 13 13 14 14 13 13 13 12 11 11 11 12 11 10
12 12 13 13 13 12 11 9 8 8 8 8 9 9 8 9 10 9 9 10 11 12 12 12 12 12 12 12 12 12 13 13 13 13 13 13 12 12 11 11 11 10 10
11 11 11 11 10 9 9 8 7 8 9 9 9 9 8 9 9 9 10 10 11 11 12 12 12 12 12 12 12 12 12 12 13 12 12 12 12 11 11 10 10 10 9

GFSGL_850_temp_342.txt.gz
Temp
25 22 22 22 22 23 22 22 23 22 22 22 22 22 20 21 20 20 20 19 19 20 20 19 20 21 20 20 20 20 21 20 20 20 18 18 17 16 16 15 15 15 15
24 23 22 22 22 22 22 21 22 22 22 22 22 22 21 20 20 20 20 20 20 20 20 20 21 20 20 20 20 20 20 20 20 19 18 18 17 16 16 15 15 15 15
23 23 22 22 22 21 21 21 21 21 21 21 21 21 21 21 20 20 20 20 20 19 19 19 19 19 19 19 20 19 19 20 20 19 18 17 17 17 15 15 15 15 15
23 23 22 22 23 23 22 22 21 21 21 21 21 21 21 21 20 20 20 20 20 18 17 17 17 17 18 18 18 18 19 19 19 19 17 17 17 16 15 15 15 15 15
23 22 22 22 22 23 22 22 22 22 21 21 22 22 20 20 21 21 20 20 18 17 16 16 15 16 17 16 18 17 18 18 18 18 18 18 17 16 15 15 14 15 15
23 22 22 22 22 23 23 22 22 22 22 21 21 20 20 20 20 20 20 19 18 18 19 18 18 19 16 17 16 16 17 18 18 18 19 18 18 17 16 16 15 15 15
22 21 21 21 22 22 21 21 21 21 21 21 21 21 20 20 21 20 20 18 18 18 21 20 20 18 18 16 17 16 16 17 17 18 18 18 18 18 17 16 15 16 16
22 21 22 21 21 21 21 21 21 21 21 21 21 21 21 21 21 20 20 20 20 20 19 20 20 18 19 18 18 17 17 17 17 18 18 18 18 18 18 18 17 16 16
25 24 23 22 22 22 22 23 23 23 22 22 21 21 20 21 20 19 19 19 19 19 19 19 19 19 18 18 18 18 16 16 17 17 18 18 18 17 17 17 16 16 16
25 25 24 24 24 23 24 24 23 23 22 21 22 22 22 21 20 20 20 19 19 19 19 18 17 18 17 17 18 17 17 17 17 18 18 18 17 17 16 16 16 15 15
23 22 22 22 23 23 23 22 23 22 22 22 22 22 22 22 21 21 21 20 21 20 19 19 19 17 17 17 17 16 17 17 16 16 17 17 16 16 16 16 16 15 15
23 22 21 22 22 21 21 22 22 21 21 22 21 21 22 22 22 22 22 21 20 20 19 18 18 17 17 16 16 16 17 16 16 16 16 16 16 16 16 16 16 15 15
22 21 21 21 21 22 22 21 21 21 21 21 21 21 21 21 21 21 19 18 18 19 19 18 17 17 17 17 16 16 16 15 15 15 15 16 16 16 16 16 15 15 15
21 21 20 20 21 21 21 21 21 21 21 21 20 20 19 19 19 19 18 18 18 18 18 18 18 17 17 17 16 16 16 15 15 15 15 15 15 15 15 15 15 15 14
21 20 20 21 21 21 21 21 21 21 20 20 20 19 19 18 19 19 19 18 18 17 17 17 18 18 18 17 16 16 16 16 15 15 14 15 15 15 15 15 14 14 14
20 20 21 20 21 21 21 21 21 20 20 20 20 19 19 18 18 18 18 18 18 17 17 16 17 17 17 17 17 17 17 16 16 15 14 13 14 15 15 15 15 14 14
19 20 20 20 20 20 20 20 19 19 19 19 18 18 18 17 17 17 17 17 17 17 17 17 17 16 16 15 16 17 17 17 16 15 15 14 13 14 14 14 14 14 14
18 19 19 19 19 19 19 18 18 18 18 17 17 17 17 16 16 16 16 16 16 16 16 16 16 16 15 16 16 16 16 16 16 16 16 15 14 13 14 14 14 14 14
18 19 18 17 17 18 18 17 17 17 16 16 16 16 15 15 15 15 15 14 13 14 14 15 15 16 16 15 15 15 14 14 14 15 15 15 14 12 13 13 13 13 13
18 18 17 17 17 17 17 17 16 16 16 16 15 14 13 13 13 13 13 13 12 12 13 13 14 14 15 15 15 14 14 14 14 14 14 14 15 13 12 13 12 13 13
18 18 17 17 17 17 15 15 15 15 14 13 13 12 11 11 11 10 9 10 10 10 11 11 12 13 14 15 15 14 14 13 14 13 14 14 14 13 12 11 12 13 13
17 17 16 16 16 15 15 14 14 13 12 11 11 10 10 10 9 9 9 9 9 9 10 10 11 12 12 13 13 13 13 14 13 13 13 14 13 14 12 11 12 12 12
15 15 15 14 14 14 14 14 12 11 10 9 9 9 9 8 8 8 9 9 9 10 10 10 11 12 12 12 12 13 13 13 13 13 13 13 13 13 12 11 11 11 12
14 14 14 14 14 13 12 11 10 9 8 8 8 9 8 8 9 8 9 9 9 10 9 10 11 11 11 12 12 12 12 12 13 13 13 13 13 13 13 12 11 11 11
13 13 13 13 12 11 10 9 8 8 9 8 8 7 8 8 8 8 9 9 9 10 10 10 11 11 11 12 12 12 12 12 12 13 12 12 13 12 13 12 11 11 11
12 12 12 11 11 10 9 8 7 7 8 7 7 6 7 7 7 8 8 8 9 9 9 9 10 10 11 11 11 12 12 12 12 12 12 13 12 12 12 12 11 11 11

GFSGL_850_temp_345.txt.gz
Temp
25 24 23 23 23 22 21 21 21 21 21 21 21 21 21 21 21 21 21 21 21 20 20 20 21 20 21 20 19 20 19 19 19 19 18 18 18 17 17 17 17 16 16
25 24 22 23 23 23 21 21 21 22 22 21 21 21 21 21 22 21 21 21 20 20 20 19 18 18 19 20 19 19 19 19 19 19 18 17 17 17 17 17 16 16 15
25 23 22 22 23 22 22 21 21 21 21 22 22 22 22 22 21 21 21 20 19 19 19 19 18 18 18 18 19 19 19 19 19 19 19 18 17 17 17 16 15 15 15
24 23 22 21 22 22 21 22 21 21 21 21 21 21 21 22 21 20 20 19 19 18 18 17 19 18 18 16 17 18 19 19 19 18 18 18 17 17 16 16 15 15 14
24 23 22 22 22 23 22 22 22 21 21 20 20 20 20 20 20 20 20 19 17 16 17 18 17 21 22 19 18 17 17 18 18 18 17 17 17 16 16 17 15 15 14
24 23 22 22 22 22 22 22 22 22 21 21 20 20 20 20 20 20 19 15 17 16 19 21 20 18 19 18 19 16 17 16 17 18 18 17 17 17 17 17 16 15 14
23 22 22 23 22 22 22 22 21 22 21 21 21 21 21 21 20 19 19 19 18 19 20 20 20 16 18 18 18 17 16 16 16 17 18 17 17 17 17 17 16 16 17
24 23 22 22 22 21 21 22 23 23 22 22 22 21 21 21 20 20 20 19 19 18 18 18 17 17 17 17 17 16 16 16 16 17 17 18 16 16 16 17 18 17 16
25 25 25 24 23 22 22 21 21 22 22 22 22 21 21 21 20 20 19 20 20 19 20 18 18 16 16 17 17 17 17 17 16 17 17 18 18 17 17 17 16 16 15
25 23 22 21 21 21 22 22 23 22 22 21 21 21 21 21 20 21 20 20 20 20 19 20 18 17 17 17 17 17 17 17 17 17 17 18 17 17 17 17 17 16 16
24 23 23 22 23 23 22 22 22 22 22 21 21 20 20 21 21 21 21 20 19 19 19 18 16 17 17 17 17 16 16 17 17 17 17 17 17 18 17 16 16 16 16
23 23 23 23 22 21 21 22 21 21 21 21 21 20 20 20 20 20 20 18 18 18 18 18 17 16 16 16 16 16 16 16 16 16 16 16 17 17 17 16 16 16 16
23 23 23 22 22 21 21 21 21 21 21 21 20 20 20 19 18 18 18 18 18 18 18 18 18 17 17 17 17 17 16 15 15 15 15 16 17 17 16 16 15 15 15
23 22 21 21 21 21 21 21 20 20 20 20 20 19 19 18 17 17 17 17 17 16 17 17 17 17 17 17 16 16 16 16 16 16 15 15 15 15 15 15 15 15 15
21 21 21 20 20 20 20 20 20 20 19 19 19 18 18 17 17 17 17 17 17 17 16 16 16 16 16 16 16 16 16 16 15 16 15 15 14 14 15 15 15 14 14
21 20 20 20 20 20 20 20 20 19 18 18 18 18 17 17 16 16 16 16 16 16 16 16 16 16 16 16 17 16 16 16 16 15 15 15 14 14 14 15 15 14 14
21 19 19 20 19 19 19 19 18 18 18 17 17 16 16 15 16 16 16 16 16 16 16 15 14 14 14 15 15 16 16 16 14 14 15 15 15 14 14 13 14 15 15
19 19 19 19 19 18 18 18 17 17 17 16 16 15 15 16 15 15 15 15 15 15 14 13 12 13 13 14 14 15 15 15 15 14 14 15 15 15 14 13 13 13 14
18 18 18 18 18 17 17 17 17 16 16 15 15 15 15 15 14 14 14 13 12 11 11 12 12 11 12 13 13 14 14 14 14 14 14 14 14 14 14 14 12 13 13
18 18 18 17 17 17 17 16 15 15 15 15 14 13 13 13 13 13 12 11 9 9 9 9 9 9 10 11 12 12 13 13 13 14 14 15 13 13 13 13 13 12 12
17 17 17 17 16 16 16 15 14 14 14 13 12 12 11 11 11 10 9 9 10 10 10 9 9 10 10 10 11 12 12 12 13 13 13 13 14 14 13 13 13 12 11
16 16 16 16 16 15 14 14 14 14 13 13 12 11 11 11 10 9 8 9 10 10 10 10 10 10 10 10 11 11 12 12 12 13 12 13 13 13 14 13 13 12 11
14 14 14 14 14 14 13 13 13 13 12 11 10 10 9 9 8 7 9 10 10 10 9 9 9 10 10 10 10 11 11 11 12 12 12 12 12 12 12 13 13 13 12
14 14 14 13 13 13 13 12 12 11 11 10 9 8 7 8 8 8 9 9 9 10 9 9 9 9 10 11 11 11 10 11 12 12 12 12 12 12 12 12 13 13 13
13 13 13 12 12 12 11 11 11 11 10 10 9 8 8 7 7 8 8 7 8 9 9 8 8 9 9 10 10 10 11 11 11 12 12 12 12 12 12 12 12 12 12
12 12 12 11 11 10 10 9 9 9 9 7 6 6 6 6 7 7 6 5 6 6 7 8 8 8 8 9 9 9 10 10 10 11 11 11 12 12 12 12 12 12 12